Regional Weather Roundup
Issued by NWS

Home | Current Version | Previous Version | Text Only | Print | Product List | Glossary On
Versions: 1 2 3 4 5 6 7 8 9 10 11 12 13 14 15 16 17 18 19 20 21 22 23 24 25 26 27 28 29 30 31 32 33 34 35 36 37 38 39 40 41 42 43 44 45 46 47 48 49 50
059
ASHW40 PHFO 162243
RWRHI

WEATHER ROUNDUP FOR HAWAII
NATIONAL WEATHER SERVICE HONOLULU HI
1200 PM HST MON OCT 16 2017

THIS IS AN AUTOMATED REPORT THAT HAS NOT BEEN QUALITY CONTROLLED.

NOTE..."FAIR" INDICATES FEW OR NO CLOUDS BELOW 12,000 FEET WITH NO
SIGNIFICANT WEATHER AND/OR OBSTRUCTIONS TO VISIBILITY.

* - THESE SITES REPORT LIMITED FIELDS
# - BUOY DATA PROVIDED BY PACIFIC ISLANDS OCEAN OBSERVING SYSTEM.

HIZ001>004-162300-
KAUAI-NIIHAU-

CITY           SKY/WX    TMP DP  RH WIND       PRES   REMARKS
LIHUE APT      PTSUNNY   83  69  62 NE22G30   30.05F
PORT ALLEN*      N/A     82 N/A N/A NE18G29     N/A
POIPU*           N/A     82 N/A N/A E13G26      N/A
PRINCEVILLE*     N/A     79 N/A N/A E12G22      N/A
KOKOLE POINT*  NOT AVBL
MOLOAA DAIRY*    N/A     82  68  61 E8G18       N/A
WAIMEA HTS*      N/A     84  75  74 E10G22      N/A  HX  92
PUU OPAE*        N/A     75  61  60 E6G18       N/A
PUU LUA*       NOT AVBL
MAKAHA RIDGE*    N/A    N/A N/A N/A E3G10       N/A
$$

HIZ005>011-162300-
OAHU-

CITY           SKY/WX    TMP DP  RH WIND       PRES   REMARKS
HONOLULU       MOSUNNY   85  63  47 E25G32    30.00F
KALAELOA       PTSUNNY   84  61  45 NE12G24   30.01F
KANEOHE MCB    MOSUNNY   74  66  76 E17G28    30.00F
WHEELER FIELD  LGT RAIN  77  66  69 E8        30.00F
BELLOWS*         N/A    N/A N/A N/A NE25G31     N/A
KAHUKU*          N/A    N/A N/A N/A NE14G26     N/A
WHEELER*         N/A    N/A N/A N/A E8G16       N/A
WAIANAE HARBOR   N/A    N/A N/A N/A E12G22      N/A
DILLINGHAM*      N/A     72  54  53 SW12G22     N/A
KAHUKU TRN*      N/A     73  59  60 W16G32      N/A
KAWAILOA*        N/A     73  64  73 E16G30      N/A
KII*             N/A     81  70  69 E24G31      N/A
MAKUA RANGE*     N/A     75  52  43 W9G24       N/A
OAHU FOREST NW   N/A     72  63  73 E25G48      N/A
SCHOFIELD BRK*   N/A    N/A N/A N/A MISG        N/A
SCHOFIELD S*   NOT AVBL
WAIANAE VLY*     N/A     72  52  49 E8G20       N/A
KUAOKALA*        N/A     77  63  61 E25G40      N/A
HONOULIUULI*   NOT AVBL
MOKUOLOE IS*   NOT AVBL
PALEHUA*         N/A     73  59  60 E13G30      N/A
WAIAWA PHB*    NOT AVBL
$$

HIZ012>013-162300-
MOLOKAI-

CITY           SKY/WX    TMP DP  RH WIND       PRES   REMARKS
MOLOKAI AIRPT  LGT RAIN  83  65  54 NE21G33   30.02F
KALAUPAPA      NOT AVBL
MAKAPULAPAI*     N/A     82  66  57 E25G35      N/A
MOLOKAI 1*       N/A    N/A N/A N/A MISG        N/A
PUU ALII*        N/A     61  60  98 N3G21       N/A
$$

HIZ016-162300-
KAHOOLAWE-

CITY           SKY/WX    TMP DP  RH WIND       PRES   REMARKS
KAHOOLAWE*     NOT AVBL
HAKIOAWA*        N/A     81  65  57 MISG      30.38
HONOKANAIA*      N/A     84  62  47 NE21G41   29.93S
KANELOA*         N/A     79  64  61 E26G43    30.05S
KEALIALALO*    NOT AVBL
LUA MAKIKA*    NOT AVBL
$$

HIZ014>015-162300-
LANAI-

CITY           SKY/WX    TMP DP  RH WIND       PRES   REMARKS
LANAI CITY     FAIR      80  65  59 NE24G31   30.02F
LANAI 1*       NOT AVBL
$$

HIZ017>028-162300-
MAUI-

CITY           SKY/WX    TMP DP  RH WIND       PRES   REMARKS
KAHULUI        MOSUNNY   86  64  47 E20G33    29.99F
KAPALUA-W MAUI MOSUNNY   81  64  57 NE21G32   30.00
HANA AIRPORT   NOT AVBL
HANA*            N/A     81 N/A N/A E13G18      N/A
HALEAKALA SUMM   N/A     41  41 100 NE26G43     N/A
MAALAEA BAY*     N/A     84 N/A N/A NE24G39     N/A
HALEAKALA*     NOT AVBL
KAUPO GAP*     NOT AVBL
KULA 1*          N/A     62  52  70 NW6         N/A
$$

HIZ023>026-162300-
BIG ISLAND OF HAWAII COAST AND LOWER SLOPES-

CITY           SKY/WX    TMP DP  RH WIND       PRES   REMARKS
KAILUA KONA    MOSUNNY   85  67  54 S12       29.90F
HILO           PTSUNNY   82  66  58 NE13      30.02F
HONOKAA*         N/A     73 N/A N/A VRB1        N/A
KAWAIHAE MWT*    N/A     86 N/A N/A NE28G53     N/A
KAWAIHAE*        N/A     84 N/A N/A NE29G43   29.84F
SOUTH POINT*     N/A     79 N/A N/A N29G41      N/A
UPOLU AIRPORT* NOT AVBL
KAMUELA*       NOT AVBL
HAKALAU*         N/A     57  53  85 NE6G14      N/A
KALOKO-HONOKO*   N/A     88  68  51 S6G12       N/A  HX  91
PALI 2*          N/A    N/A N/A N/A S24G39      N/A
KEALAKOMO*       N/A     82  63  51 NE22G33     N/A
KAUPULEHU*       N/A     82  63  51 W15G26      N/A
KAPAPALA*        N/A     82  59  44 E12G28      N/A
LOWER KAHUKU*    N/A    N/A N/A N/A E5G17       N/A
PUHE CS*         N/A     84  54  34 NE21G44     N/A
PUHO CS*         N/A     86  69  57 W3          N/A  HX  90
PTA KEAMUKU*     N/A     73  55  53 NE29G41     N/A
WAIKOLOA*        N/A     82  59  44 NE30G51     N/A
$$

HIZ027>028-162300-
BIG ISLAND OF HAWAII INTERIOR AND SUMMMITS-

CITY           SKY/WX    TMP DP  RH WIND       PRES   REMARKS
BRADSHAW FIELD SUNNY     68  50  52 SE15G28   30.25F
MK VISITOR CEN   N/A     59  37  44 W6          N/A
MAUNA KEA*       N/A     45  -9  10 N23         N/A
MAUNA LOA*       N/A     55 -18   4 MISG        N/A
MAUNA LOA 1*   NOT AVBL
PTA KIPUKA*      N/A    N/A N/A N/A W13G29      N/A
PTA RANGE 17*    N/A     54  32  43 NW14G32     N/A
PTA WEST*        N/A     79  52  38 NW7G26      N/A
NENE CABIN*      N/A     59  52  77 E10G21      N/A
AHUMOA*          N/A     69  49  47 SW10G17     N/A
PTA PORTABLE*  NOT AVBL
PUU MALI*        N/A     57  52  82 E29G41      N/A
$$

HIC003-162300-
NORTHWEST ISLANDS-

CITY           SKY/WX    TMP DP  RH WIND       PRES   REMARKS
MIDWAY ISLAND  CLOUDY    81  75  83 E21       30.15S
MIDWAY NOS*      N/A     79 N/A N/A MISG      30.14S
FRENCH FRIGATE NOT AVBL
$$

PHZ110>124-180-162300-
BUOY REPORTS

STATION/POSITION TIME  TEMP    WIND        PRES    WAVE   SWELL
                       AIR SEA DIR/SP/G            HT/PER HT/DIR
                 (UTC) (F)     (DEG/KT/KT) (MB)    (FT/S) (FT/D)
BUOY 51001       2230   80 81   80/ 19/ 25 1018.7F
BUOY 51101       2150   78 81   70/ 17/ 21 1019.4F  12/10  10/ 90
BUOY 51100       NOT AVBL
BUOY 51002       2230   80      70/ 23/ 29 1012.2F
BUOY 51003       2150   81 82   60/ 21/ 25 1013.8F  11/10   8/ 90
BUOY 51004       2230   79      50/ 19/ 23 1012.5F
WAIMEA BAY#      2202      78                N/A     8/ 9   3/ 30
MOKAPU POINT#    2204      81                N/A    11/10   5/ 50
LANAI#           NOT AVBL
BARBERS PT 2#    NOT AVBL
PAUWELA#         NOT AVBL
HILO#            2227      80                N/A    10/10   5/330
KANEOHE BAY#     NOT AVBL
KANEOHE BAY 2#   NOT AVBL
HANALEI#         2222      81                N/A    10/10   5/ 60
KAHULUI HARBOR   2212   79 80   60/ 18/ 27 1015.9
HONOLULU HARBOR  2212   80 81   80/  6/ 17 1016.4
PEARL HARBOR#    2200      81                N/A     5/17   3/160
KILO NALU        NOT AVBL
HILO HARBOR      NOT AVBL
MOKUOLOE         2136   80 81   90/ 18/ 24 1016.9F
NAWILIWILI       2212   80 86   60/ 18/ 22 1016.9
WHOTS BUOY       NOT AVBL
BUOY 51028       NOT AVBL
$$

......................KEY........................................
  SKY/WX - SKY CONDITIONS/PRESENT WEATHER
  TMP    - TEMPERATURE IN FAHRENHEIT
  DWPT   - DEWPOINT IN FAHRENHEIT
  RH     - RELATIVE HUMIDITY IN PERCENT
  WIND   - DIRECTION AND SPEED /MPH FOR ISLANDS...KTS FOR BUOYS/
  PRES   - MEAN SEA LEVEL PRESSURE IN INCHES OF HG
  VSB    - VISIBILITY IN MILES
  HX     - HEAT INDEX
  WCI    - WIND CHILL INDEX
  VRB    - VARIABLE WIND DIRECTION
  N/A    - NOT AVAILABLE




USA.gov is the U.S. government's official web portal to all federal, state and local government web resources and services.